DW7589 Weather Reports


Display with metric or nautical units.
time (UTC)temp
F
wind
direction
speed
MPH
gust
MPH
rain 1hr
in
rain 24hr
in
rain mn
in
humidity
%
barometer
mb
20180527134515 79 216 2.0 4.0 0.00 0.00 0.00 76 1011.2
20180527133014 79 194 2.0 4.0 0.00 0.00 0.00 79 1011.0
20180527132514 78 195 2.0 4.0 0.00 0.00 0.00 79 1010.9
20180527132015 78 191 2.0 4.0 0.00 0.00 0.00 82 1010.9
20180527131514 77 188 2.0 3.0 0.00 0.00 0.00 82 1010.9
20180527130514 76 188 2.0 3.0 0.00 0.00 0.00 84 1010.8
20180527130015 76 190 2.0 4.0 0.00 0.00 0.00 85 1010.7
20180527125014 76 189 2.0 4.0 0.00 0.00 0.00 84 1010.6
20180527124515 76 185 2.0 4.0 0.00 0.00 0.00 85 1010.6
20180527124015 76 184 2.0 3.0 0.00 0.00 0.00 85 1010.5
20180527123014 76 191 2.0 3.0 0.00 0.00 0.00 85 1010.4
20180527122515 76 191 2.0 3.0 0.00 0.00 0.00 86 1010.3
20180527121014 76 0 0.0 2.0 0.00 0.00 0.00 87 1010.3
20180527120014 75 0 0.0 0.0 0.00 0.00 0.00 86 1010.0
20180527114015 75 0 0.0 2.0 0.00 0.00 0.00 85 1009.7
20180527113514 75 0 0.0 2.0 0.00 0.00 0.00 84 1009.7
20180527112515 76 159 1.0 2.0 0.00 0.00 0.00 84 1009.6
20180527112014 76 164 1.0 2.0 0.00 0.00 0.00 84 1009.4
20180527111514 76 164 1.0 2.0 0.00 0.00 0.00 84 1009.3
20180527105514 76 0 0.0 0.0 0.00 0.00 0.00 83 1009.1
20180527104514 77 0 0.0 1.0 0.00 0.00 0.00 82 1009.0
20180527104014 77 0 0.0 1.0 0.00 0.00 0.00 81 1008.9
20180527101514 77 0 0.0 0.0 0.00 0.00 0.00 81 1008.7
20180527095514 77 164 1.0 2.0 0.00 0.00 0.00 81 1008.5
20180527095015 77 0 0.0 2.0 0.00 0.00 0.00 81 1008.7
20180527093014 78 164 1.0 2.0 0.00 0.00 0.00 80 1008.6
20180527085514 78 0 0.0 0.0 0.00 0.00 0.00 79 1008.7
20180527085014 78 0 0.0 1.0 0.00 0.00 0.00 79 1008.5
20180527084014 78 164 1.0 2.0 0.00 0.00 0.00 78 1008.4
20180527083514 78 164 1.0 2.0 0.00 0.00 0.00 78 1008.3
20180527083014 78 164 1.0 2.0 0.00 0.00 0.00 77 1008.4
20180527081515 78 164 1.0 2.0 0.00 0.00 0.00 76 1008.5
20180527081014 79 164 1.0 4.0 0.00 0.00 0.00 76 1008.5
20180527080514 79 164 1.0 4.0 0.00 0.00 0.00 76 1008.5
20180527075014 79 164 1.0 2.0 0.00 0.00 0.00 74 1008.8
20180527074514 79 164 1.0 2.0 0.00 0.00 0.00 74 1008.7
20180527074014 80 164 1.0 2.0 0.00 0.00 0.00 74 1008.8
20180527073014 80 164 1.0 4.0 0.00 0.00 0.00 73 1008.9
20180527072514 80 164 1.0 4.0 0.00 0.00 0.00 72 1008.8
20180527072014 80 164 2.0 4.0 0.00 0.00 0.00 72 1008.8
20180527071514 80 164 1.0 4.0 0.00 0.00 0.00 72 1008.9
20180527065514 81 168 2.0 5.0 0.00 0.00 0.00 70 1008.9
20180527064514 81 176 2.0 4.0 0.00 0.00 0.00 70 1009.1
20180527063514 81 176 2.0 3.0 0.00 0.00 0.00 70 1009.1
20180527063013 82 176 2.0 3.0 0.00 0.01 0.00 70 1009.2
20180527062014 82 173 2.0 5.0 0.00 0.03 0.00 69 1009.2
20180527061514 82 168 2.0 5.0 0.00 0.03 0.00 69 1009.2
20180527060514 82 164 2.0 4.0 0.00 0.03 0.00 69 1009.3
20180527060014 82 164 2.0 4.0 0.00 0.03 0.00 69 1009.3
20180527055514 82 167 2.0 4.0 0.00 0.03 0.00 68 1009.3
20180527054514 83 181 2.0 3.0 0.00 0.03 0.00 68 1009.3
20180527054014 83 187 2.0 4.0 0.00 0.03 0.00 68 1009.4
20180527053014 83 163 3.0 5.0 0.00 0.03 0.00 69 1009.3
20180527050015 83 165 2.0 5.0 0.00 0.03 0.00 68 1009.4
20180527045514 84 165 2.0 5.0 0.00 0.03 0.03 68 1009.4
20180527043514 84 162 3.0 6.0 0.00 0.03 0.03 66 1009.2
20180527042514 84 152 2.0 5.0 0.00 0.03 0.03 66 1009.3
20180527040514 85 160 2.0 5.0 0.00 0.03 0.03 65 1009.2
20180527035513 85 161 2.0 5.0 0.00 0.03 0.03 64 1009.0
20180527034014 85 160 2.0 4.0 0.00 0.03 0.03 63 1008.9
20180527033514 85 158 2.0 4.0 0.00 0.03 0.03 63 1008.8
20180527032514 85 157 2.0 3.0 0.00 0.03 0.03 64 1008.8
20180527031514 86 157 2.0 3.0 0.00 0.03 0.03 64 1008.6
20180527031014 86 157 2.0 3.0 0.00 0.03 0.03 64 1008.7
20180527030014 86 153 2.0 4.0 0.00 0.03 0.03 64 1008.5
20180527025014 86 153 2.0 4.0 0.00 0.03 0.03 65 1008.4
20180527024513 86 153 2.0 3.0 0.00 0.03 0.03 65 1008.4
20180527024014 86 153 1.0 3.0 0.00 0.03 0.03 66 1008.4
20180527023514 86 153 1.0 2.0 0.00 0.03 0.03 65 1008.3
20180527023014 86 153 1.0 2.0 0.00 0.03 0.03 64 1008.2
20180527022513 87 153 1.0 2.0 0.00 0.03 0.03 63 1008.1
20180527021514 87 153 2.0 3.0 0.00 0.03 0.03 62 1008.0
20180527021014 87 153 2.0 3.0 0.00 0.03 0.03 62 1007.9
20180527020513 87 153 2.0 3.0 0.00 0.03 0.03 61 1007.9
20180527020014 88 153 1.0 3.0 0.00 0.03 0.03 60 1007.8
20180527014514 89 150 1.0 4.0 0.00 0.03 0.03 56 1007.7
20180527013513 90 111 2.0 3.0 0.00 0.03 0.03 54 1007.6
20180527011513 91 0 0.0 0.0 0.00 0.03 0.03 50 1007.3
20180527005513 93 161 1.0 2.0 0.00 0.03 0.03 46 1007.0
20180527004514 94 161 1.0 2.0 0.00 0.03 0.03 43 1006.9
20180527004013 94 161 1.0 2.0 0.00 0.03 0.03 42 1006.9
20180527003514 94 161 1.0 2.0 0.00 0.03 0.03 42 1006.9
20180527002514 94 159 2.0 5.0 0.00 0.03 0.03 41 1006.9
20180527002014 95 154 2.0 5.0 0.00 0.03 0.03 42 1006.9
20180527000514 95 135 2.0 3.0 0.00 0.03 0.03 41 1006.9
20180527000013 95 134 1.0 3.0 0.00 0.03 0.03 41 1006.9
20180526235514 95 134 1.0 3.0 0.00 0.03 0.03 41 1006.9
20180526232514 95 166 2.0 5.0 0.00 0.03 0.03 41 1007.1
20180526230514 96 223 1.0 3.0 0.00 0.03 0.03 38 1007.3
20180526225514 97 218 2.0 4.0 0.00 0.03 0.03 36 1007.4
20180526224513 99 197 1.0 3.0 0.00 0.03 0.03 37 1007.4
20180526224013 99 197 1.0 2.0 0.00 0.03 0.03 34 1007.4
20180526223514 99 197 1.0 2.0 0.00 0.03 0.03 35 1007.4
20180526222513 98 205 2.0 3.0 0.00 0.03 0.03 34 1007.5
20180526222013 98 205 1.0 4.0 0.00 0.03 0.03 33 1007.6
20180526221016 98 140 1.0 4.0 0.00 0.03 0.03 35 1007.7
20180526220513 98 144 1.0 4.0 0.00 0.03 0.03 34 1007.7
20180526220013 97 150 2.0 4.0 0.00 0.03 0.03 35 1007.8
20180526215514 97 143 2.0 4.0 0.00 0.03 0.03 36 1007.8
20180526215013 98 137 1.0 3.0 0.00 0.03 0.03 36 1007.9
20180526214513 97 131 2.0 4.0 0.00 0.03 0.03 37 1007.9
20180526213514 98 113 2.0 4.0 0.00 0.03 0.03 37 1008.0
20180526213013 98 116 2.0 4.0 0.00 0.03 0.03 36 1008.0
20180526212513 98 191 2.0 5.0 0.00 0.03 0.03 36 1008.0
20180526212013 97 159 2.0 6.0 0.00 0.03 0.03 36 1008.1
20180526211514 97 134 2.0 6.0 0.00 0.03 0.03 39 1008.1
20180526211013 97 138 2.0 5.0 0.00 0.03 0.03 37 1008.2
20180526205514 97 122 2.0 5.0 0.00 0.03 0.03 36 1008.3
20180526204513 97 115 2.0 5.0 0.00 0.03 0.03 39 1008.5
20180526204013 97 123 2.0 5.0 0.00 0.03 0.03 39 1008.5
20180526203517 97 120 2.0 4.0 0.00 0.03 0.03 42 1008.5
20180526202513 97 109 2.0 6.0 0.00 0.03 0.03 41 1008.6
20180526202013 97 104 2.0 3.0 0.00 0.03 0.03 42 1008.7
20180526201513 97 106 2.0 4.0 0.00 0.03 0.03 42 1008.8
20180526201013 96 107 2.0 4.0 0.00 0.03 0.03 43 1008.8
20180526200513 96 106 2.0 6.0 0.00 0.03 0.03 42 1008.9
20180526195013 97 104 2.0 7.0 0.00 0.03 0.03 41 1009.1
20180526194514 97 144 2.0 4.0 0.00 0.03 0.03 42 1009.2
20180526193013 96 163 2.0 4.0 0.00 0.03 0.03 41 1009.4
20180526192513 96 122 2.0 4.0 0.00 0.03 0.03 37 1009.5
20180526192013 96 110 2.0 4.0 0.00 0.03 0.03 37 1009.6
20180526191513 96 115 2.0 4.0 0.00 0.03 0.03 41 1009.7
20180526190513 96 174 1.0 5.0 0.00 0.03 0.03 45 1009.9
20180526190014 95 165 1.0 3.0 0.00 0.03 0.03 46 1009.9
20180526185513 95 142 2.0 4.0 0.00 0.03 0.03 44 1010.0
20180526185014 95 123 2.0 4.0 0.00 0.03 0.03 44 1010.0
20180526181513 95 58 2.0 4.0 0.00 0.03 0.03 44 1010.6
20180526181013 95 54 2.0 4.0 0.00 0.03 0.03 46 1010.6
20180526174512 93 214 2.0 5.0 0.00 0.03 0.03 48 1010.7
20180526174013 93 235 2.0 4.0 0.00 0.03 0.03 51 1010.8
20180526172513 92 242 1.0 5.0 0.00 0.03 0.03 51 1010.9
20180526172013 92 240 2.0 5.0 0.00 0.03 0.03 49 1011.0
20180526171513 92 229 2.0 4.0 0.00 0.03 0.03 51 1011.0
20180526171013 92 217 2.0 4.0 0.00 0.03 0.03 49 1011.1
20180526170512 91 230 2.0 5.0 0.00 0.03 0.03 51 1011.2
20180526165013 90 250 2.0 6.0 0.00 0.03 0.03 54 1011.1
20180526164514 90 234 2.0 5.0 0.00 0.03 0.03 51 1011.3
20180526164013 90 232 2.0 5.0 0.00 0.03 0.03 52 1011.4
20180526163513 90 226 2.0 7.0 0.00 0.03 0.03 52 1011.4
20180526163013 90 219 2.0 7.0 0.00 0.03 0.03 53 1011.4
20180526162013 89 218 2.0 7.0 0.00 0.03 0.03 55 1011.4
20180526160513 89 216 2.0 6.0 0.00 0.03 0.03 53 1011.6
20180526155513 88 229 2.0 5.0 0.00 0.03 0.03 53 1011.6
20180526155013 87 223 2.0 5.0 0.00 0.03 0.03 51 1011.6
20180526154513 87 232 2.0 7.0 0.00 0.03 0.03 51 1011.7
20180526153513 86 231 2.0 4.0 0.00 0.03 0.03 54 1011.7
20180526153013 86 240 2.0 4.0 0.00 0.03 0.03 54 1011.8
20180526151013 84 235 2.0 5.0 0.00 0.03 0.03 57 1011.8
20180526150012 84 244 2.0 7.0 0.00 0.03 0.03 56 1011.8
20180526145513 83 222 2.0 5.0 0.00 0.03 0.03 60 1011.8
20180526145013 82 226 3.0 6.0 0.00 0.03 0.03 60 1011.8
20180526144012 82 220 2.0 5.0 0.00 0.03 0.03 61 1011.9
20180526142013 80 219 1.0 3.0 0.00 0.03 0.03 66 1011.7
20180526141513 80 206 1.0 3.0 0.00 0.03 0.03 66 1011.7
20180526141013 79 195 1.0 3.0 0.00 0.03 0.03 68 1011.7
20180526140513 79 207 1.0 3.0 0.00 0.03 0.03 70 1011.6
20180526135513 78 183 1.0 3.0 0.00 0.03 0.03 70 1011.5